User: anonymous   Login
Location: Gleizolles
(44.4833°N, 6.7667°E)
Time: 20:35:46
(UTC+00:00)
Language:

Vanguard 3 - Orbit

View from above orbital plane
View from above orbital plane
View from above satellite
View from above satellite

Ground track
Ground track

The orbit data is extracted from the following two-line orbital elements,

1 00020U 59007A   24174.91060035  .00003218  00000-0  13144-2 0  9994
2 00020  33.3440 349.5708 1649953 138.1406 235.7873 11.58947009400437
Epoch (UTC): 22 June 2024 21:51:15
Eccentricity: 0.1649953
inclination: 33.3440°
perigee height: 509 km
apogee height: 3231 km
right ascension of ascending node: 349.5708°
argument of perigee: 138.1406°
revolutions per day: 11.58947009
mean anomaly at epoch: 235.7873°
orbit number at epoch: 40043

The dashed part of the orbit path shows where the satellite is in the earth's shadow,  

DLR